Location: Marcé
(47.5801°N, 0.3280°W)
Time: 11:18:25
(UTC+01:00)

Vanguard 3 - Pass Details

Date: 01 December 2021
Orbit: 508 x 3260 km, 33.3° (Epoch: 17 January)

Event Time Altitude Azimuth Distance (km) Brightness Sun altitude
Exits shadow 02:36:54 14° 152° (SSE) 5,839 11.3 -56.5°
Maximum altitude 02:41:49 16° 136° (SE) 5,668 11.3 -55.9°
Drops below altitude 10° 02:50:50 10° 107° (ESE) 5,889 11.7 -54.7°
Sets 02:57:45 0° 89° (E) 6,517 12.2 -53.7°
